CW2931 Weather Reports


time (UTC)temp
C
wind
direction
speed
KPH
gust
KPH
rain 1hr
cm
rain 24hr
cm
rain mn
cm
humidity
%
barometer
mb
20260508230604 17 239 0.0 0.0 0.00 0.00 0.00 63 1006.0
20260508230104 17 204 0.0 0.0 0.00 0.00 0.00 63 1006.0
20260508225104 17 201 0.0 0.0 0.00 0.00 0.00 64 1006.1
20260508224604 17 185 0.0 0.0 0.00 0.00 0.00 65 1006.1
20260508224104 17 194 0.0 0.0 0.00 0.00 0.00 66 1006.1
20260508223604 17 178 0.0 0.0 0.00 0.00 0.00 67 1006.1
20260508223104 17 169 0.0 0.0 0.00 0.00 0.00 67 1006.2
20260508222604 17 151 0.0 0.0 0.00 0.00 0.00 66 1006.2
20260508222104 16 168 0.0 0.0 0.00 0.00 0.00 66 1006.4
20260508221104 16 195 0.0 0.0 0.00 0.00 0.00 67 1006.6
20260508220604 16 171 0.0 0.0 0.00 0.00 0.00 66 1006.6
20260508215604 16 182 0.0 0.0 0.00 0.00 0.00 65 1006.6
20260508215104 16 201 0.0 0.0 0.00 0.00 0.00 65 1006.7
20260508214604 16 186 0.0 0.0 0.00 0.00 0.00 65 1006.7
20260508214104 16 190 0.0 0.0 0.00 0.00 0.00 63 1006.7
20260508213604 17 187 0.0 0.0 0.00 0.00 0.00 62 1006.6
20260508213104 17 179 0.0 0.0 0.00 0.00 0.00 64 1006.6
20260508212604 17 149 0.0 0.0 0.00 0.00 0.00 62 1006.7
20260508212104 17 157 0.0 0.0 0.00 0.00 0.00 60 1006.7
20260508211105 17 184 0.0 0.0 0.00 0.00 0.00 57 1006.7
20260508210104 17 170 0.0 0.0 0.00 0.00 0.00 56 1006.8
20260508205104 17 185 0.0 0.0 0.00 0.00 0.00 58 1006.8
20260508204604 17 190 0.0 0.0 0.00 0.00 0.00 57 1007.0
20260508204104 17 191 0.0 0.0 0.00 0.00 0.00 58 1006.9
20260508203604 17 167 0.0 0.0 0.00 0.00 0.00 58 1006.9
20260508203104 17 189 0.0 0.0 0.00 0.00 0.00 57 1007.0
20260508202604 17 209 0.0 0.0 0.00 0.00 0.00 59 1007.0
20260508202104 17 143 0.0 0.0 0.00 0.00 0.00 61 1007.0
20260508201604 17 153 0.0 0.0 0.00 0.00 0.00 60 1007.2
20260508200604 17 179 0.0 0.0 0.00 0.00 0.00 56 1007.6
20260508195605 17 174 0.0 0.0 0.00 0.00 0.00 57 1007.7
20260508195105 17 208 0.0 0.0 0.00 0.00 0.00 58 1007.7
20260508194604 17 175 0.0 0.0 0.00 0.00 0.00 58 1007.8
20260508194104 17 154 0.0 0.0 0.00 0.00 0.00 58 1007.9
20260508193604 17 188 0.0 0.0 0.00 0.00 0.00 57 1008.0
20260508193104 17 107 0.0 0.0 0.00 0.00 0.00 58 1008.1
20260508192604 17 142 0.0 0.0 0.00 0.00 0.00 60 1008.2
20260508192104 17 148 0.0 0.0 0.00 0.00 0.00 60 1008.3
20260508191104 16 176 0.0 0.0 0.00 0.00 0.00 56 1008.7
20260508190604 17 151 0.0 0.0 0.00 0.00 0.00 58 1008.5
20260508185604 16 155 0.0 0.0 0.00 0.00 0.00 55 1008.8
20260508185104 16 171 0.0 0.0 0.00 0.00 0.00 56 1008.8
20260508184604 16 113 0.0 0.0 0.00 0.00 0.00 55 1008.8
20260508184104 16 142 0.0 0.0 0.00 0.00 0.00 54 1008.8
20260508183604 16 177 0.0 0.0 0.00 0.00 0.00 55 1008.8
20260508183104 16 212 0.0 0.0 0.00 0.00 0.00 54 1008.9
20260508182604 16 128 0.0 0.0 0.00 0.00 0.00 55 1008.8
20260508182104 16 148 0.0 0.0 0.00 0.00 0.00 54 1008.8
20260508181604 16 155 0.0 0.0 0.00 0.00 0.00 52 1008.8
20260508180604 16 219 0.0 0.0 0.00 0.00 0.00 54 1009.0
20260508180104 16 163 0.0 0.0 0.00 0.00 0.00 54 1009.1
20260508175603 16 117 0.0 0.0 0.00 0.00 0.00 55 1009.2
20260508175104 16 56 0.0 0.0 0.00 0.00 0.00 53 1009.3
20260508174604 16 62 0.0 0.0 0.00 0.00 0.00 52 1009.4
20260508174104 16 173 0.0 0.0 0.00 0.00 0.00 52 1009.6
20260508173604 16 125 0.0 0.0 0.00 0.00 0.00 54 1009.7
20260508173104 16 170 0.0 0.0 0.00 0.00 0.00 52 1009.8
20260508172604 16 169 0.0 0.0 0.00 0.00 0.00 51 1009.8
20260508172104 16 156 0.0 0.0 0.00 0.00 0.00 47 1009.8
20260508171604 17 169 0.0 0.0 0.00 0.00 0.00 44 1009.8
20260508171104 17 184 0.0 0.0 0.00 0.00 0.00 44 1009.9
20260508170604 17 252 0.0 0.0 0.00 0.00 0.00 43 1009.9
20260508170104 17 169 0.0 0.0 0.00 0.00 0.00 44 1009.9
20260508165604 17 246 0.0 0.0 0.00 0.00 0.00 43 1010.2
20260508165104 17 273 0.0 0.0 0.00 0.00 0.00 42 1010.3
20260508164604 16 228 0.0 0.0 0.00 0.00 0.00 42 1010.4
20260508164104 17 209 0.0 0.0 0.00 0.00 0.00 43 1010.4
20260508163604 16 229 0.0 0.0 0.00 0.00 0.00 44 1010.5
20260508163104 16 179 0.0 0.0 0.00 0.00 0.00 45 1010.6
20260508162604 16 169 0.0 0.0 0.00 0.00 0.00 45 1010.6
20260508161604 16 219 0.0 0.0 0.00 0.00 0.00 45 1010.8
20260508161104 16 219 0.0 0.0 0.00 0.00 0.00 46 1010.8
20260508160604 16 249 0.0 0.0 0.00 0.00 0.00 46 1010.8
20260508160104 16 237 0.0 0.0 0.00 0.00 0.00 46 1010.9
20260508155604 15 167 0.0 0.0 0.00 0.00 0.00 47 1010.9
20260508155104 15 188 0.0 0.0 0.00 0.00 0.00 47 1010.9
20260508154604 15 357 0.0 0.0 0.00 0.00 0.00 47 1011.0
20260508154104 15 338 0.0 0.0 0.00 0.00 0.00 48 1010.9
20260508153604 15 6 0.0 0.0 0.00 0.00 0.00 48 1010.9
20260508153104 15 313 0.0 0.0 0.00 0.00 0.00 48 1011.0
20260508152604 15 247 0.0 0.0 0.00 0.00 0.00 49 1011.0
20260508152104 15 312 0.0 0.0 0.00 0.00 0.00 49 1011.0
20260508151604 15 311 0.0 0.0 0.00 0.00 0.00 52 1011.0
20260508151104 15 347 0.0 0.0 0.00 0.00 0.00 51 1011.0
20260508150604 15 248 0.0 0.0 0.00 0.00 0.00 51 1011.0
20260508150104 15 93 0.0 0.0 0.00 0.00 0.00 52 1011.1
20260508145604 15 89 0.0 0.0 0.00 0.00 0.00 53 1011.1
20260508145104 15 91 0.0 0.0 0.00 0.00 0.00 56 1011.3
20260508144604 14 355 0.0 0.0 0.00 0.00 0.00 57 1011.3
20260508144104 14 261 0.0 0.0 0.00 0.00 0.00 58 1011.3
20260508143603 13 113 0.0 0.0 0.00 0.00 0.00 58 1011.4
20260508143104 13 149 0.0 0.0 0.00 0.00 0.00 59 1011.5
20260508142604 13 251 0.0 0.0 0.00 0.00 0.00 59 1011.5
20260508142104 13 269 0.0 0.0 0.00 0.00 0.00 60 1011.5
20260508141604 13 269 0.0 0.0 0.00 0.00 0.00 61 1011.5
20260508141103 13 239 0.0 0.0 0.00 0.00 0.00 63 1011.5
20260508140604 13 265 0.0 0.0 0.00 0.00 0.00 65 1011.5
20260508140103 12 245 0.0 0.0 0.00 0.00 0.00 66 1011.5
20260508135604 12 331 0.0 0.0 0.00 0.00 0.00 67 1011.6
20260508135104 12 330 0.0 0.0 0.00 0.00 0.00 67 1011.6
20260508134603 12 323 0.0 0.0 0.00 0.00 0.00 68 1011.6
20260508134104 12 233 0.0 0.0 0.00 0.00 0.00 69 1011.6
20260508133604 12 238 0.0 0.0 0.00 0.00 0.00 70 1011.6
20260508133104 12 256 0.0 0.0 0.00 0.00 0.00 72 1011.6
20260508132604 11 253 0.0 0.0 0.00 0.00 0.00 73 1011.6
20260508132104 11 251 0.0 0.0 0.00 0.00 0.00 74 1011.6
20260508131604 11 244 0.0 0.0 0.00 0.00 0.00 75 1011.6
20260508131103 11 199 0.0 0.0 0.00 0.00 0.00 76 1011.6
20260508130606 11 202 0.0 0.0 0.00 0.00 0.00 76 1011.6
20260508125603 10 205 0.0 0.0 0.00 0.00 0.00 79 1011.6
20260508124604 10 204 0.0 0.0 0.00 0.00 0.00 81 1011.6
20260508124104 10 217 0.0 0.0 0.00 0.00 0.00 81 1011.6
20260508123604 10 209 0.0 0.0 0.00 0.00 0.00 82 1011.5
20260508123104 9 223 0.0 0.0 0.00 0.00 0.00 83 1011.5
20260508122604 9 202 0.0 0.0 0.00 0.00 0.00 83 1011.5
20260508122103 8 202 0.0 0.0 0.00 0.00 0.00 84 1011.5
20260508121603 8 247 0.0 0.0 0.00 0.00 0.00 84 1011.5
20260508121103 8 251 0.0 0.0 0.00 0.00 0.00 85 1011.5
20260508120604 8 254 0.0 0.0 0.00 0.00 0.00 85 1011.5
20260508115604 7 252 0.0 0.0 0.00 0.00 0.00 85 1011.5
20260508115104 7 245 0.0 0.0 0.00 0.00 0.00 84 1011.4
20260508114603 7 243 0.0 0.0 0.00 0.00 0.00 84 1011.3
20260508113604 6 246 0.0 0.0 0.00 0.00 0.00 83 1011.0
20260508113104 6 246 0.0 0.0 0.00 0.00 0.00 82 1011.0
20260508112603 6 244 0.0 0.0 0.00 0.00 0.00 82 1011.0
20260508111604 6 238 0.0 0.0 0.00 0.00 0.00 81 1011.0
20260508111104 6 242 0.0 0.0 0.00 0.00 0.00 81 1010.9
20260508110104 6 243 0.0 0.0 0.00 0.00 0.00 81 1010.8
20260508105104 6 244 0.0 0.0 0.00 0.00 0.00 81 1010.8
20260508104603 6 244 0.0 0.0 0.00 0.00 0.00 81 1010.8
20260508104103 6 244 0.0 0.0 0.00 0.00 0.00 80 1010.7
20260508103604 6 244 0.0 0.0 0.00 0.00 0.00 80 1010.7
20260508102104 6 244 0.0 0.0 0.00 0.00 0.00 80 1010.6
20260508101603 6 244 0.0 0.0 0.00 0.00 0.00 79 1010.7
20260508101104 6 244 0.0 0.0 0.00 0.00 0.00 79 1010.7
20260508100603 6 244 0.0 0.0 0.00 0.00 0.00 79 1010.5
20260508095104 7 244 0.0 0.0 0.00 0.00 0.00 78 1010.6
20260508094604 7 244 0.0 0.0 0.00 0.00 0.00 78 1010.6
20260508094103 7 244 0.0 0.0 0.00 0.00 0.00 78 1010.6
20260508093604 7 243 0.0 0.0 0.00 0.00 0.00 78 1010.6
20260508092603 7 242 0.0 0.0 0.00 0.00 0.00 77 1010.7
20260508092103 7 240 0.0 0.0 0.00 0.00 0.00 77 1010.7
20260508091604 7 240 0.0 0.0 0.00 0.00 0.00 77 1010.6
20260508091104 7 240 0.0 0.0 0.00 0.00 0.00 76 1010.6
20260508090604 7 240 0.0 0.0 0.00 0.00 0.00 76 1010.6
20260508090104 8 240 0.0 0.0 0.00 0.00 0.00 76 1010.6
20260508085605 8 240 0.0 0.0 0.00 0.00 0.00 76 1010.7
20260508085104 8 240 0.0 0.0 0.00 0.00 0.00 76 1010.5
20260508084604 8 239 0.0 0.0 0.00 0.00 0.00 76 1010.6
20260508084104 8 240 0.0 0.0 0.00 0.00 0.00 76 1010.5
20260508083603 8 240 0.0 0.0 0.00 0.00 0.00 76 1010.6
20260508083104 8 240 0.0 0.0 0.00 0.00 0.00 77 1010.7
20260508082604 8 241 0.0 0.0 0.00 0.00 0.00 77 1010.7
20260508082103 8 244 0.0 0.0 0.00 0.00 0.00 77 1010.6
20260508081604 8 245 0.0 0.0 0.00 0.00 0.00 76 1010.5
20260508081104 8 257 0.0 0.0 0.00 0.00 0.00 76 1010.6
20260508080104 8 256 0.0 0.0 0.00 0.00 0.00 76 1010.9
20260508075604 8 256 0.0 0.0 0.00 0.00 0.00 76 1010.9
20260508075104 8 256 0.0 0.0 0.00 0.00 0.00 76 1010.8
20260508074103 8 255 0.0 0.0 0.00 0.00 0.00 76 1010.8
20260508073604 8 243 0.0 0.0 0.00 0.00 0.00 76 1010.9
20260508073103 8 267 0.0 0.0 0.00 0.00 0.00 76 1011.0
20260508072603 8 252 0.0 0.0 0.00 0.00 0.00 75 1011.0
20260508072103 8 248 0.0 0.0 0.00 0.00 0.00 75 1011.0
20260508071603 8 226 0.0 0.0 0.00 0.00 0.00 74 1011.0
20260508071103 8 215 0.0 0.0 0.00 0.00 0.00 74 1011.0
20260508070104 8 247 0.0 0.0 0.00 0.00 0.00 72 1011.0
20260508065603 8 248 0.0 0.0 0.00 0.00 0.00 71 1010.9
20260508065104 8 248 0.0 0.0 0.00 0.00 0.00 70 1011.0
20260508064604 8 248 0.0 0.0 0.00 0.00 0.00 70 1011.0
20260508064103 8 248 0.0 0.0 0.00 0.00 0.00 70 1011.0
20260508063604 8 248 0.0 0.0 0.00 0.00 0.00 70 1011.0
20260508063104 8 248 0.0 0.0 0.00 0.00 0.00 70 1011.0
20260508062604 8 249 0.0 0.0 0.00 0.00 0.00 70 1011.0
20260508062104 8 249 0.0 0.0 0.00 0.00 0.00 69 1010.9
20260508061603 8 250 0.0 0.0 0.00 0.00 0.00 69 1010.9
20260508061103 8 250 0.0 0.0 0.00 0.00 0.00 69 1011.0
20260508060604 8 249 0.0 0.0 0.00 0.00 0.00 68 1011.0
20260508055606 9 250 0.0 0.0 0.00 0.00 0.00 68 1011.0
20260508054105 9 251 0.0 0.0 0.00 0.00 0.00 66 1011.1
20260508053606 9 251 0.0 0.0 0.00 0.00 0.00 66 1011.2
20260508053105 10 252 0.0 0.0 0.00 0.00 0.00 66 1011.2
20260508052106 10 253 0.0 0.0 0.00 0.00 0.00 66 1011.3
20260508051606 10 253 0.0 0.0 0.00 0.00 0.00 66 1011.3
20260508051106 10 252 0.0 0.0 0.00 0.00 0.00 66 1011.3
20260508045605 10 242 0.0 0.0 0.00 0.00 0.00 65 1011.3
20260508045106 10 234 0.0 0.0 0.00 0.00 0.00 65 1011.2
20260508044605 10 238 0.0 0.0 0.00 0.00 0.00 65 1011.1
20260508044105 10 229 0.0 0.0 0.00 0.00 0.00 64 1011.1
20260508043606 10 244 0.0 0.0 0.00 0.00 0.00 64 1011.1
20260508043105 11 247 0.0 0.0 0.00 0.00 0.00 63 1011.0
20260508042605 11 232 0.0 0.0 0.00 0.00 0.00 63 1011.0
20260508042106 11 225 0.0 0.0 0.00 0.00 0.00 63 1011.0
20260508041605 11 232 0.0 0.0 0.00 0.00 0.00 62 1011.0
20260508041105 11 222 0.0 0.0 0.00 0.00 0.00 62 1011.0
20260508040605 11 257 0.0 0.0 0.00 0.00 0.00 62 1011.1
20260508040105 11 250 0.0 0.0 0.00 0.00 0.00 62 1011.0
20260508035606 11 232 0.0 0.0 0.00 0.00 0.00 62 1011.1
20260508035106 11 214 0.0 0.0 0.00 0.00 0.00 61 1011.1
20260508034105 11 198 0.0 0.0 0.00 0.00 0.00 61 1011.2
20260508033605 11 236 0.0 0.0 0.00 0.00 0.00 60 1011.4
20260508033106 11 234 0.0 0.0 0.00 0.00 0.00 59 1011.5
20260508032606 11 239 0.0 0.0 0.00 0.00 0.00 59 1011.5
20260508032106 11 213 0.0 0.0 0.00 0.00 0.00 59 1011.5
20260508031606 11 233 0.0 0.0 0.00 0.00 0.00 58 1011.6
20260508031105 11 269 0.0 0.0 0.00 0.00 0.00 57 1011.6
20260508030605 11 225 0.0 0.0 0.00 0.00 0.00 56 1011.6
20260508030105 11 245 0.0 0.0 0.00 0.00 0.00 55 1011.7
20260508025605 11 241 0.0 0.0 0.00 0.00 0.00 55 1011.6
20260508025105 11 258 0.0 0.0 0.00 0.00 0.00 55 1011.6
20260508024605 11 263 0.0 0.0 0.00 0.00 0.00 54 1011.7
20260508024105 11 263 0.0 0.0 0.00 0.00 0.00 54 1011.8
20260508023105 11 275 0.0 0.0 0.00 0.00 0.00 53 1011.7
20260508022605 11 203 0.0 0.0 0.00 0.00 0.00 53 1011.6
20260508022105 11 212 0.0 0.0 0.00 0.00 0.00 52 1011.6
20260508021605 11 261 0.0 0.0 0.00 0.00 0.00 52 1011.6
20260508021105 11 249 0.0 0.0 0.00 0.00 0.00 54 1011.6
20260508020605 11 258 0.0 0.0 0.00 0.00 0.00 56 1011.6
20260508020106 11 257 0.0 0.0 0.00 0.00 0.00 55 1011.5
20260508015605 11 257 0.0 0.0 0.00 0.00 0.00 55 1011.3
20260508015106 11 257 0.0 0.0 0.00 0.00 0.00 54 1011.2
20260508014105 11 257 0.0 0.0 0.00 0.00 0.00 52 1011.2
20260508013606 11 257 0.0 0.0 0.00 0.00 0.00 51 1011.1
20260508013107 11 257 0.0 0.0 0.00 0.00 0.00 50 1011.0
20260508012605 11 257 0.0 0.0 0.00 0.00 0.00 49 1010.9
20260508012105 11 257 0.0 0.0 0.00 0.00 0.00 49 1010.8
20260508011605 12 257 0.0 0.0 0.00 0.00 0.00 48 1010.7
20260508011105 12 257 0.0 0.0 0.00 0.00 0.00 47 1010.6
20260508010106 12 257 0.0 0.0 0.00 0.00 0.00 45 1010.6
20260508005605 12 257 0.0 0.0 0.00 0.00 0.00 45 1010.7
20260508005105 12 257 0.0 0.0 0.00 0.00 0.00 44 1010.6
20260508004605 12 256 0.0 0.0 0.00 0.00 0.00 44 1010.6
20260508003605 12 256 0.0 0.0 0.00 0.00 0.00 43 1010.5
20260508003105 12 256 0.0 0.0 0.00 0.00 0.00 43 1010.5
20260508002605 13 249 0.0 0.0 0.00 0.00 0.00 43 1010.5
20260508001105 13 274 0.0 0.0 0.00 0.00 0.00 41 1010.5
20260507235105 13 274 0.0 0.0 0.00 0.00 0.00 40 1010.5
20260507234105 13 235 0.0 0.0 0.00 0.00 0.00 39 1010.5
20260507233605 13 271 0.0 0.0 0.00 0.00 0.00 39 1010.5
20260507233106 13 276 0.0 0.0 0.00 0.00 0.00 39 1010.5
20260507232605 13 257 0.0 0.0 0.00 0.00 0.00 38 1010.5
20260507232105 14 263 0.0 0.0 0.00 0.00 0.00 38 1010.5